Preview of NWS' New Version of Forecast
This preview is not operational and should not be used for support decisions.

Regional Weather Roundup (RWR)

Issued by National Weather Service (NWS)

                            
000
ASCA42 TJSJ 190610
RWRPR 
PUERTO RICO/U.S. VIRGIN ISLANDS HOURLY WEATHER ROUNDUP
NATIONAL WEATHER SERVICE SAN JUAN PR
200 AM AST WED JUN 19 2019

PRZ001>002-007>008-010-190700-
PUERTO RICO
  
CITY           SKY/WX    TMP DP  RH WIND       PRES   REMARKS
SAN JUAN LMM   MOCLDY    81  75  83 E12       30.06F                  
CEIBA          CLOUDY    82  75  78 E9        30.08F                  
$$

VIZ001>002-190700-
U.S. VIRGIN ISLANDS
  
CITY           SKY/WX    TMP DP  RH WIND       PRES   REMARKS
CHARLOTTE AMA  CLEAR     81  73  78 E9        30.06F                  
CHRISTIANSTED  CLOUDY    81  73  78 NE10      30.06F                  
$$

HOURLY WEATHER ROUNDUP FOR THE NEWS MEDIA
  
CITY           SKY/WX    TMP DP  RH WIND       PRES   REMARKS
ORLANDO        FAIR      77  75  93 SW6       30.03S                  
NEW YORK       CLOUDY    66  66 100 NE7       29.89S FOG              
NEWARK         CLOUDY    68  67  96 CALM      29.88S FOG              
CHICAGO        FAIR      67  55  65 CALM      29.84F                  
HARTFORD       CLOUDY    63  61  93 NE5       29.86S                  
BOSTON         FOG       61  59  93 NE3       29.89  VSB 3/4          
DALLAS         MOCLDY    85  69  58 S8        29.83F                  
PHILADELPHIA   CLOUDY    71  69  93 SW7       29.88S                  
LOS ANGELES    CLOUDY    65  58  78 W8        29.99S                  
WASHINGTON DC  CLOUDY    71  69  93 S7        29.89S